This is the latest recevied weather packets stored in our database for station/object OK2KJT-11. If no packets are shown the sender has not sent any weather packets the latest 10 day(s).
| Time | Temp. | Humidity | Pressure | Rain* | Wind** | Luminosity | Snow |
|---|---|---|---|---|---|---|---|
| 1788683878 | 13.89° C | 59% | 1026.8 hPa | - | - | - | - |
| 1788683278 | 13.89° C | 61% | 1026.6 hPa | - | - | - | - |
| 1788682678 | 13.89° C | 60% | 1026.5 hPa | - | - | - | - |
| 1788682078 | 14.44° C | 60% | 1026.5 hPa | - | - | - | - |
| 1788681479 | 13.33° C | 65% | 1026.4 hPa | - | - | - | - |
| 1788680879 | 13.33° C | 68% | 1026.3 hPa | - | - | - | - |
| 1788680279 | 12.78° C | 71% | 1026.3 hPa | - | - | - | - |
| 1788679680 | 12.78° C | 72% | 1026.2 hPa | - | - | - | - |
| 1788679080 | 12.22° C | 74% | 1026.1 hPa | - | - | - | - |
| 1788678488 | 11.67° C | 74% | 1025.9 hPa | - | - | - | - |
| 1788677881 | 11.67° C | 75% | 1026 hPa | - | - | - | - |
| 1788677281 | 11.67° C | 75% | 1025.7 hPa | - | - | - | - |
| 1788676681 | 11.67° C | 75% | 1025.7 hPa | - | - | - | - |
| 1788676081 | 11.67° C | 75% | 1025.8 hPa | - | - | - | - |
| 1788675481 | 11.11° C | 76% | 1025.6 hPa | - | - | - | - |
| 1788674889 | 11.11° C | 77% | 1025.6 hPa | - | - | - | - |
| 1788674282 | 10.56° C | 78% | 1025.4 hPa | - | - | - | - |
| 1788673682 | 10.56° C | 79% | 1025.4 hPa | - | - | - | - |
| 1788673083 | 10.56° C | 79% | 1025.2 hPa | - | - | - | - |
| 1788672483 | 10° C | 79% | 1025.2 hPa | - | - | - | - |
| 1788671883 | 10° C | 80% | 1025.1 hPa | - | - | - | - |
| 1788671283 | 10° C | 80% | 1025 hPa | - | - | - | - |
| 1788670683 | 9.44° C | 80% | 1025 hPa | - | - | - | - |
| 1788670084 | 9.44° C | 80% | 1024.8 hPa | - | - | - | - |
| 1788669491 | 9.44° C | 80% | 1024.8 hPa | - | - | - | - |
* Rain since midnight (hover to see other rain measurements)
** Current wind speed in m/s (hover to see current wind gust speed)